TimeEST,TemperatureF,Dew PointF,Humidity,Sea Level PressureIn,VisibilityMPH,Wind Direction,Wind SpeedMPH,Gust SpeedMPH,PrecipitationIn,Events,Conditions,WindDirDegrees,DateUTC
12:35 AM,41.2,29.3,63,30.20,10.0,NNW,6.9,-,N/A,,Overcast,330,2013-01-07 05:35:00
12:55 AM,41.2,28.6,61,30.19,10.0,NW,6.9,-,N/A,,Overcast,320,2013-01-07 05:55:00
1:15 AM,40.8,28.8,62,30.20,10.0,NW,9.2,-,N/A,,Overcast,320,2013-01-07 06:15:00
1:35 AM,41.0,27.7,59,30.21,10.0,WNW,9.2,18.4,N/A,,Overcast,290,2013-01-07 06:35:00
1:55 AM,40.6,26.6,57,30.23,10.0,West,8.1,-,N/A,,Overcast,280,2013-01-07 06:55:00
2:35 AM,40.1,25.0,55,30.24,10.0,WSW,5.8,-,N/A,,Overcast,250,2013-01-07 07:35:00
2:55 AM,39.4,25.0,56,30.25,10.0,WNW,5.8,-,N/A,,Overcast,300,2013-01-07 07:55:00
3:15 AM,39.2,25.2,57,30.26,10.0,WNW,17.3,24.2,N/A,,Overcast,290,2013-01-07 08:15:00
3:35 AM,38.5,25.5,60,30.27,10.0,WNW,10.4,-,N/A,,Overcast,290,2013-01-07 08:35:00
3:55 AM,38.5,25.5,60,30.27,10.0,WNW,11.5,-,N/A,,Overcast,300,2013-01-07 08:55:00
4:15 AM,38.3,25.7,61,30.28,10.0,WNW,10.4,-,N/A,,Overcast,290,2013-01-07 09:15:00
4:35 AM,37.9,25.5,61,30.29,10.0,NW,9.2,-,N/A,,Overcast,310,2013-01-07 09:35:00
4:55 AM,38.1,26.1,62,30.29,10.0,NNW,5.8,-,N/A,,Overcast,340,2013-01-07 09:55:00
5:15 AM,37.6,26.1,63,30.30,10.0,WNW,9.2,-,N/A,,Overcast,300,2013-01-07 10:15:00
5:35 AM,37.0,26.2,65,30.31,10.0,West,9.2,-,N/A,,Overcast,280,2013-01-07 10:35:00
5:55 AM,37.0,26.1,65,30.32,10.0,West,10.4,-,N/A,,Overcast,280,2013-01-07 10:55:00
6:15 AM,36.5,26.6,67,30.33,10.0,West,5.8,-,N/A,,Overcast,280,2013-01-07 11:15:00
6:35 AM,36.3,26.6,68,30.34,10.0,West,8.1,-,N/A,,Overcast,280,2013-01-07 11:35:00
7:35 AM,35.1,26.6,71,30.38,10.0,WSW,3.5,-,N/A,,Overcast,240,2013-01-07 12:35:00
7:55 AM,34.9,26.1,70,30.39,10.0,West,3.5,-,N/A,,Overcast,260,2013-01-07 12:55:00
8:15 AM,34.9,26.2,71,30.41,10.0,West,6.9,-,N/A,,Overcast,270,2013-01-07 13:15:00
8:35 AM,35.1,26.2,70,30.41,10.0,Calm,Calm,-,N/A,,Overcast,0,2013-01-07 13:35:00
8:55 AM,35.1,26.8,72,30.42,10.0,Calm,Calm,-,N/A,,Overcast,0,2013-01-07 13:55:00
9:15 AM,35.8,27.0,70,30.43,10.0,Calm,Calm,-,N/A,,Overcast,0,2013-01-07 14:15:00
9:35 AM,37.0,26.2,65,30.44,10.0,West,4.6,-,N/A,,Overcast,260,2013-01-07 14:35:00
9:55 AM,37.6,26.4,64,30.45,10.0,West,8.1,-,N/A,,Overcast,280,2013-01-07 14:55:00
10:15 AM,37.6,25.9,63,30.46,10.0,North,3.5,-,N/A,,Overcast,350,2013-01-07 15:15:00
10:35 AM,38.5,25.3,59,30.46,10.0,North,3.5,-,N/A,,Overcast,360,2013-01-07 15:35:00
10:55 AM,39.4,25.2,57,30.45,10.0,NE,3.5,-,N/A,,Scattered Clouds,50,2013-01-07 15:55:00
11:15 AM,38.7,24.6,57,30.45,10.0,ENE,3.5,-,N/A,,Scattered Clouds,60,2013-01-07 16:15:00
11:35 AM,40.3,25.2,55,30.44,10.0,Calm,Calm,-,N/A,,Scattered Clouds,0,2013-01-07 16:35:00
11:55 AM,39.4,25.3,57,30.43,10.0,ESE,3.5,-,N/A,,Scattered Clouds,120,2013-01-07 16:55:00
12:15 PM,40.5,25.0,54,30.43,10.0,Calm,Calm,-,N/A,,Mostly Cloudy,0,2013-01-07 17:15:00
12:35 PM,39.6,24.8,56,30.42,10.0,SE,3.5,-,N/A,,Mostly Cloudy,140,2013-01-07 17:35:00
12:55 PM,41.7,25.5,53,30.41,10.0,SSE,3.5,-,N/A,,Scattered Clouds,150,2013-01-07 17:55:00
1:15 PM,41.5,25.0,52,30.40,10.0,Calm,Calm,-,N/A,,Clear,0,2013-01-07 18:15:00
1:35 PM,42.8,24.6,49,30.40,10.0,Calm,Calm,-,N/A,,Clear,0,2013-01-07 18:35:00
2:15 PM,43.0,24.8,49,30.39,10.0,Calm,Calm,-,N/A,,Clear,0,2013-01-07 19:15:00
2:35 PM,43.9,25.5,48,30.39,10.0,Calm,Calm,-,N/A,,Clear,0,2013-01-07 19:35:00
2:55 PM,43.9,25.3,48,30.39,10.0,Calm,Calm,-,N/A,,Clear,0,2013-01-07 19:55:00
3:15 PM,43.9,25.3,48,30.39,10.0,Calm,Calm,-,N/A,,Clear,0,2013-01-07 20:15:00
3:35 PM,44.6,25.5,47,30.39,10.0,Calm,Calm,-,N/A,,Clear,0,2013-01-07 20:35:00
3:55 PM,43.9,24.8,47,30.39,10.0,Calm,Calm,-,N/A,,Clear,0,2013-01-07 20:55:00
4:15 PM,43.3,25.0,48,30.39,10.0,Calm,Calm,-,N/A,,Clear,0,2013-01-07 21:15:00
4:35 PM,42.6,26.1,52,30.39,10.0,Calm,Calm,-,N/A,,Clear,0,2013-01-07 21:35:00
4:55 PM,40.1,25.9,57,30.39,10.0,East,6.9,-,N/A,,Clear,100,2013-01-07 21:55:00
5:15 PM,37.6,25.9,63,30.39,10.0,SE,4.6,-,N/A,,Clear,140,2013-01-07 22:15:00
5:35 PM,35.8,26.4,69,30.39,10.0,Calm,Calm,-,N/A,,Clear,0,2013-01-07 22:35:00
6:15 PM,33.1,26.4,77,30.39,10.0,WNW,4.6,-,N/A,,Clear,290,2013-01-07 23:15:00
6:35 PM,33.3,27.5,79,30.39,7.0,WNW,3.5,-,N/A,,Clear,290,2013-01-07 23:35:00
6:55 PM,30.7,25.7,82,30.41,7.0,Calm,Calm,-,N/A,,Clear,0,2013-01-07 23:55:00
7:15 PM,31.8,26.2,80,30.41,7.0,Calm,Calm,-,N/A,,Clear,0,2013-01-08 00:15:00
7:35 PM,30.2,25.3,82,30.39,7.0,Calm,Calm,-,N/A,,Clear,0,2013-01-08 00:35:00
7:55 PM,30.4,25.9,83,30.39,7.0,Calm,Calm,-,N/A,,Clear,0,2013-01-08 00:55:00
8:15 PM,29.5,24.6,82,30.39,7.0,Calm,Calm,-,N/A,,Clear,0,2013-01-08 01:15:00
8:35 PM,29.5,25.7,86,30.39,7.0,Calm,Calm,-,N/A,,Clear,0,2013-01-08 01:35:00
8:55 PM,29.3,25.9,87,30.39,7.0,Calm,Calm,-,N/A,,Clear,0,2013-01-08 01:55:00
9:15 PM,28.0,24.6,87,30.39,7.0,Calm,Calm,-,N/A,,Clear,0,2013-01-08 02:15:00
9:35 PM,27.5,24.3,88,30.38,7.0,Calm,Calm,-,N/A,,Clear,0,2013-01-08 02:35:00
9:55 PM,27.3,24.3,88,30.37,5.0,Calm,Calm,-,N/A,,Clear,0,2013-01-08 02:55:00
10:15 PM,26.6,23.7,89,30.37,5.0,Calm,Calm,-,N/A,,Clear,0,2013-01-08 03:15:00
10:35 PM,26.1,23.2,89,30.37,5.0,Calm,Calm,-,N/A,,Clear,0,2013-01-08 03:35:00
10:55 PM,25.5,22.6,89,30.36,5.0,Calm,Calm,-,N/A,,Clear,0,2013-01-08 03:55:00
11:15 PM,24.6,21.9,89,30.36,5.0,Calm,Calm,-,N/A,,Clear,0,2013-01-08 04:15:00
11:35 PM,24.1,21.6,90,30.35,4.0,Calm,Calm,-,N/A,,Clear,0,2013-01-08 04:35:00
11:55 PM,23.9,21.7,91,30.35,4.0,Calm,Calm,-,N/A,,Clear,0,2013-01-08 04:55:00